| time (UTC) | temp F | wind direction | speed MPH | gust MPH | rain 1hr in | rain 24hr in | rain mn in | humidity % | barometer mb |
| 20260506073054 | 54 | 150 | 0.0 | 4.0 | 0.00 | 0.00 | 0.00 | 82 | 1015.7 |
| 20260506071551 | 54 | 123 | 1.0 | 7.0 | 0.00 | 0.00 | 0.00 | 82 | 1015.6 |
| 20260506061559 | 55 | 138 | 1.0 | 4.0 | 0.00 | 0.00 | 0.00 | 80 | 1015.2 |
| 20260506050112 | 57 | 131 | 2.0 | 7.0 | 0.00 | 0.00 | 0.00 | 77 | 1014.9 |
| 20260506044554 | 57 | 151 | 1.0 | 6.0 | 0.00 | 0.00 | 0.00 | 76 | 1014.9 |
| 20260506043057 | 58 | 134 | 3.0 | 10.0 | 0.00 | 0.00 | 0.00 | 76 | 1014.6 |
| 20260506041601 | 58 | 163 | 3.0 | 7.0 | 0.00 | 0.00 | 0.00 | 76 | 1014.5 |
| 20260506040053 | 58 | 132 | 1.0 | 5.0 | 0.00 | 0.00 | 0.00 | 75 | 1014.3 |
| 20260506034556 | 58 | 171 | 2.0 | 6.0 | 0.00 | 0.00 | 0.00 | 75 | 1014.2 |
| 20260506033053 | 58 | 186 | 2.0 | 10.0 | 0.00 | 0.00 | 0.00 | 75 | 1014.0 |
| 20260506031551 | 58 | 121 | 2.0 | 7.0 | 0.00 | 0.00 | 0.00 | 75 | 1013.9 |
| 20260506030056 | 59 | 175 | 2.0 | 7.0 | 0.00 | 0.00 | 0.00 | 75 | 1013.8 |
| 20260506024603 | 59 | 177 | 3.0 | 9.0 | 0.00 | 0.00 | 0.00 | 74 | 1013.9 |
| 20260506023109 | 59 | 175 | 2.0 | 8.0 | 0.00 | 0.00 | 0.00 | 74 | 1014.0 |
| 20260506021552 | 60 | 128 | 3.0 | 10.0 | 0.00 | 0.00 | 0.00 | 73 | 1014.0 |
| 20260506020056 | 60 | 140 | 4.0 | 11.0 | 0.00 | 0.00 | 0.00 | 72 | 1014.1 |
| 20260506014551 | 61 | 146 | 4.0 | 10.0 | 0.00 | 0.00 | 0.00 | 70 | 1014.2 |
| 20260506013102 | 61 | 136 | 3.0 | 11.0 | 0.00 | 0.00 | 0.00 | 69 | 1014.1 |
| 20260506011551 | 62 | 140 | 4.0 | 8.0 | 0.00 | 0.00 | 0.00 | 69 | 1014.2 |
| 20260506010057 | 63 | 104 | 4.0 | 8.0 | 0.00 | 0.00 | 0.00 | 68 | 1014.2 |
| 20260506004557 | 63 | 152 | 3.0 | 9.0 | 0.00 | 0.00 | 0.00 | 67 | 1014.2 |
| 20260506003053 | 63 | 134 | 4.0 | 9.0 | 0.00 | 0.00 | 0.00 | 68 | 1014.3 |
| 20260506001558 | 63 | 142 | 3.0 | 10.0 | 0.00 | 0.00 | 0.00 | 69 | 1014.4 |
| 20260506000058 | 63 | 161 | 4.0 | 10.0 | 0.00 | 0.00 | 0.00 | 69 | 1014.4 |
| 20260505234553 | 63 | 178 | 3.0 | 10.0 | 0.00 | 0.00 | 0.00 | 69 | 1014.7 |
| 20260505233056 | 63 | 146 | 3.0 | 9.0 | 0.00 | 0.00 | 0.00 | 69 | 1014.7 |
| 20260505231555 | 64 | 142 | 4.0 | 11.0 | 0.00 | 0.00 | 0.00 | 68 | 1014.9 |
| 20260505230119 | 64 | 151 | 3.0 | 9.0 | 0.00 | 0.00 | 0.00 | 68 | 1015.0 |
| 20260505224601 | 63 | 161 | 3.0 | 10.0 | 0.00 | 0.00 | 0.00 | 69 | 1015.3 |
| 20260505223058 | 64 | 161 | 2.0 | 14.0 | 0.00 | 0.00 | 0.00 | 68 | 1015.4 |
| 20260505221604 | 63 | 146 | 4.0 | 10.0 | 0.00 | 0.00 | 0.00 | 68 | 1015.5 |
| 20260505220059 | 63 | 169 | 5.0 | 11.0 | 0.00 | 0.00 | 0.00 | 68 | 1015.6 |
| 20260505214553 | 64 | 259 | 3.0 | 8.0 | 0.00 | 0.00 | 0.00 | 69 | 1015.6 |
| 20260505213055 | 63 | 133 | 2.0 | 11.0 | 0.00 | 0.00 | 0.00 | 71 | 1015.7 |
| 20260505211559 | 64 | 5 | 3.0 | 8.0 | 0.00 | 0.00 | 0.00 | 69 | 1015.8 |
| 20260505210104 | 62 | 186 | 4.0 | 9.0 | 0.00 | 0.00 | 0.00 | 72 | 1016.0 |
| 20260505204558 | 62 | 161 | 4.0 | 9.0 | 0.00 | 0.00 | 0.00 | 71 | 1016.1 |
| 20260505203055 | 64 | 318 | 3.0 | 9.0 | 0.00 | 0.00 | 0.00 | 70 | 1016.1 |
| 20260505201552 | 63 | 279 | 2.0 | 9.0 | 0.00 | 0.00 | 0.00 | 74 | 1016.1 |
| 20260505200107 | 62 | 185 | 4.0 | 10.0 | 0.00 | 0.00 | 0.00 | 71 | 1016.2 |
| 20260505194554 | 61 | 352 | 3.0 | 9.0 | 0.00 | 0.00 | 0.00 | 74 | 1016.2 |
| 20260505193103 | 62 | 209 | 2.0 | 8.0 | 0.00 | 0.00 | 0.00 | 72 | 1016.1 |
| 20260505191557 | 61 | 179 | 3.0 | 8.0 | 0.00 | 0.00 | 0.00 | 74 | 1016.0 |
| 20260505190050 | 62 | 167 | 4.0 | 12.0 | 0.00 | 0.00 | 0.00 | 74 | 1016.1 |
| 20260505184551 | 61 | 292 | 4.0 | 11.0 | 0.00 | 0.00 | 0.00 | 75 | 1016.1 |
| 20260505183056 | 61 | 152 | 5.0 | 10.0 | 0.00 | 0.00 | 0.00 | 74 | 1016.0 |
| 20260505181558 | 59 | 194 | 3.0 | 10.0 | 0.00 | 0.00 | 0.00 | 78 | 1016.0 |
| 20260505180054 | 58 | 223 | 3.0 | 9.0 | 0.00 | 0.00 | 0.00 | 80 | 1016.0 |
| 20260505174550 | 57 | 160 | 2.0 | 8.0 | 0.00 | 0.00 | 0.00 | 81 | 1015.9 |
| 20260505173054 | 57 | 313 | 1.0 | 9.0 | 0.00 | 0.00 | 0.00 | 81 | 1015.8 |
| 20260505171554 | 56 | 141 | 3.0 | 8.0 | 0.00 | 0.00 | 0.00 | 83 | 1015.9 |
| 20260505170051 | 55 | 245 | 1.0 | 9.0 | 0.00 | 0.00 | 0.00 | 84 | 1015.7 |
| 20260505164551 | 55 | 169 | 3.0 | 8.0 | 0.00 | 0.00 | 0.00 | 84 | 1015.7 |
| 20260505163054 | 55 | 178 | 4.0 | 8.0 | 0.00 | 0.00 | 0.00 | 84 | 1015.7 |
| 20260505161558 | 55 | 197 | 2.0 | 8.0 | 0.00 | 0.00 | 0.00 | 84 | 1015.6 |
| 20260505153054 | 55 | 148 | 2.0 | 9.0 | 0.00 | 0.00 | 0.00 | 84 | 1015.4 |
| 20260505151552 | 55 | 159 | 1.0 | 6.0 | 0.00 | 0.00 | 0.00 | 84 | 1015.4 |
| 20260505150104 | 54 | 127 | 2.0 | 8.0 | 0.00 | 0.00 | 0.00 | 84 | 1015.2 |
| 20260505130110 | 53 | 121 | 2.0 | 6.0 | 0.00 | 0.00 | 0.00 | 83 | 1013.5 |
| 20260505124555 | 54 | 163 | 2.0 | 6.0 | 0.00 | 0.00 | 0.00 | 82 | 1013.3 |
| 20260505123056 | 54 | 132 | 3.0 | 8.0 | 0.00 | 0.00 | 0.00 | 82 | 1013.2 |
| 20260505121558 | 54 | 144 | 3.0 | 7.0 | 0.00 | 0.00 | 0.00 | 81 | 1012.9 |
| 20260505114551 | 55 | 157 | 1.0 | 6.0 | 0.00 | 0.00 | 0.00 | 80 | 1012.5 |
| 20260505113103 | 55 | 94 | 2.0 | 6.0 | 0.00 | 0.00 | 0.00 | 80 | 1012.4 |
| 20260505111557 | 55 | 109 | 1.0 | 6.0 | 0.00 | 0.00 | 0.00 | 80 | 1012.2 |
| 20260505101558 | 55 | 95 | 4.0 | 8.0 | 0.00 | 0.00 | 0.00 | 78 | 1011.8 |
| 20260505100052 | 55 | 105 | 2.0 | 6.0 | 0.00 | 0.00 | 0.00 | 78 | 1011.7 |
| 20260505094609 | 55 | 103 | 2.0 | 6.0 | 0.00 | 0.00 | 0.00 | 78 | 1011.6 |
| 20260505093054 | 55 | 111 | 2.0 | 6.0 | 0.00 | 0.00 | 0.00 | 77 | 1011.6 |
| 20260505091556 | 56 | 99 | 4.0 | 9.0 | 0.00 | 0.00 | 0.00 | 76 | 1011.5 |
| 20260505084556 | 57 | 90 | 4.0 | 9.0 | 0.00 | 0.00 | 0.00 | 73 | 1011.2 |
| 20260505083100 | 57 | 118 | 4.0 | 8.0 | 0.00 | 0.00 | 0.00 | 73 | 1011.0 |
| 20260505081600 | 55 | 105 | 2.0 | 4.0 | 0.00 | 0.00 | 0.00 | 76 | 1010.8 |
| 20260505080053 | 56 | 152 | 0.0 | 2.0 | 0.00 | 0.00 | 0.00 | 74 | 1010.8 |